www.pogodaiklimat.ru

Погода и климат >> Архив погоды >> Россия >> Калининградская область >> Черняховск


ПОГОДА в Черняховске

  • Прогноз погоды в Черняховске
  • Монитор погоды в Черняховске
  • Климат города

АРХИВ ПОГОДЫ в Черняховске

Время (UTC), дата Ветер
(напр.,м/с)
 
Видим.   Явления Облачность Т
(С)
Тd
(С)
f
(%)
Тe
(С)
Тes
(С)
Комфортность P
(гПа)
Po
(гПа)
Тmin
(С)
Tmax
(С)
R
(мм)
R24
(мм)
S
(см)
03 18.06 З 1-2
{6}
н/о н/о +14.4 +11.4 82 +15 +15 1015.1 1011.3 +13.9
06 18.06 С 4-8
{8}
20 км 8/0
[Ac trans]
+20.6 +13.9 65 +23 +25 комфорт 1016.2 1012.5 +13.9
09 18.06 С 3-6
{8}
н/о н/о +23.4 +12.0 49 +26 +26 жарко 1017.4 1013.7
12 18.06 С 4-6
{9}
н/о н/о +24.5 +8.8 37 +25 +25 комфорт 1017.7 1014.1
15 18.06 С 4-9
{9}
н/о н/о +22.0 +10.2 47 +24 +24 комфорт 1018.0 1014.3
18 18.06 З 1-2
{9}
20 км 8/3 600 м
[Sc Ac trans Cc]
+20.2 +10.2 53 +23 +23 комфорт 1018.5 1014.8 +24.8
21 18.06 СЗ 1-2
{2}
н/о н/о +16.4 +11.6 73 +17 +17 1018.9 1015.2
00 19.06 Ю 1-1
{2}
н/о н/о +14.9 +11.7 81 +15 +15 1018.0 1014.2
03 19.06 Ю 1-3
{3}
н/о н/о +13.7 +10.7 82 +14 +14 1017.8 1014.0 +13.0
06 19.06 ЮЗ 3-5
{6}
20 км 8/0
[Ac trans Ci sp]
+19.3 +12.2 63 +21 +23 комфорт 1017.1 1013.4 +13.0
09 19.06 ЮЗ 4-10
{10}
н/о н/о +24.1 +11.5 45 +26 +26 жарко 1016.3 1012.6
12 19.06 ЮЗ 2-5
{10}
н/о н/о +19.4 +15.1 76 +22 +22 комфорт 1016.5 1012.8
15 19.06 СЗ 4-9
{11}
н/о н/о +21.1 +11.8 55 +23 +23 комфорт 1017.1 1013.5
18 19.06 З 2-4
{9}
20 км 9/3 600 м
[Sc Ac lent Ci fib]
+19.2 +12.0 63 +21 +21 комфорт 1017.7 1014.0 +24.5 0.0
21 19.06 ЮЗ 1-2
{4}
н/о н/о +15.7 +12.1 79 +16 +16 1018.3 1014.5
00 20.06 ЮЗ 2-4
{4}
н/о н/о +13.9 +12.2 89 +13 +13 1018.4 1014.6
03 20.06 ЮЗ 2-5
{5}
н/о н/о +12.8 +10.8 88 +12 +12 1019.2 1015.4 +12.4
06 20.06 З 2-5
{7}
20 км 4/4 600 м
[Cu med, cong]
+18.0 +12.3 69 +19 +22 1019.9 1016.2 +12.4
09 20.06 З 3-6
{8}
н/о н/о +20.8 +10.6 52 +23 +23 комфорт 1020.1 1016.4
12 20.06 З 4-8
{10}
н/о н/о +22.6 +7.5 38 +24 +24 комфорт 1019.7 1016.0
15 20.06 З 4-7
{10}
н/о н/о +23.3 +8.6 39 +25 +25 комфорт 1019.1 1015.5
18 20.06 С 2-4
{8}
20 км 1/0
[Ac lent]
+20.5 +11.8 57 +23 +23 комфорт 1017.7 1014.0 +23.4
21 20.06 ЮВ 1-3
{4}
н/о н/о +16.8 +11.4 70 +18 +18 1016.4 1012.6
00 21.06 Ю 1-3
{3}
н/о н/о +14.8 +10.7 76 +15 +15 1014.6 1010.8
03 21.06 Ю 1-2
{4}
н/о н/о +16.1 +11.8 76 +17 +17 1013.5 1009.8 +12.2
06 21.06 Ю 2-7
{7}
20 км 5/5 600 м
[Cu Sc]
+22.4 +13.7 58 +26 +29 жарко 1011.4 1007.8 +12.2
09 21.06 Ю 3-9
{12}
н/о н/о +27.1 +13.8 44 +29 +29 жарко 1008.4 1004.8
12 21.06 Ю 4-11
{13}
н/о н/о +30.0 +11.9 33 +31 +31 жарко 1004.6 1001.1
15 21.06 ЮЗ 4-10
{13}
н/о н/о +29.2 +11.4 33 +30 +30 жарко 1001.3 997.7
18 21.06 СЗ 4-9
{20}
20 км 10/10 300 м
[Cu Sc]
+14.9 +12.1 83 +14 +14 1005.3 1001.6 +30.8 1
21 21.06 ЮЗ 2-4
{9}
н/о н/о +12.3 +11.5 95 +11 +11 1006.0 1002.3
00 22.06 ЮЗ 2-5
{7}
н/о н/о +11.4 +9.9 90 +10 +10 1006.8 1003.1
03 22.06 ЮЗ 3-6
{9}
н/о н/о +10.8 +9.0 89 +9 +9 1008.3 1004.5 +10.8
06 22.06 ЮЗ 4-8
{8}
20 км 9/1 600 м
[Cu med, cong Ci]
+12.1 +8.3 78 +10 +13 1009.0 1005.3 +10.5 4
09 22.06 ЮЗ 4-8
{10}
н/о н/о +14.4 +6.6 59 +13 +13 1010.3 1006.6
12 22.06 З 5-9
{11}
н/о н/о +16.5 +5.7 49 +16 +16 1011.1 1007.3
15 22.06 ЮЗ 4-8
{11}
н/о н/о +16.1 +9.0 63 +15 +15 1012.9 1009.2
18 22.06 ЮЗ 1-2
{9}
20 км 1/1 600 м
[Cu med, cong]
+14.1 +9.7 75 +14 +15 1013.6 1009.8 +17.7 0.8
21 22.06 штиль 0
{4}
н/о н/о +9.9 +7.9 87 +9 +9 1013.9 1010.1
00 23.06 Ю 1-2
{3}
н/о н/о +9.5 +7.7 89 +9 +9 1013.9 1010.1
03 23.06 Ю 1-2
{3}
н/о н/о +8.2 +7.2 93 +7 +7 1013.7 1009.8 +7.8
06 23.06 Ю 2-4
{4}
20 км 9/1 600 м
[Cu med, cong Ac cuf Ci fib]
+14.8 +9.6 71 +15 +18 1013.5 1009.7 +7.8
09 23.06 ЮЗ 3-6
{8}
н/о н/о +17.9 +8.2 53 +18 +18 1012.6 1008.9
12 23.06 З 3-6
{8}
н/о н/о +17.6 +8.2 54 +18 +18 1012.1 1008.4
15 23.06 СЗ 2-5
{10}
н/о н/о +15.8 +9.0 64 +16 +16 1012.6 1008.9
18 23.06 СЗ 3-5
{6}
20 км 3/1 600 м
[Cu med, cong Cc]
+15.3 +6.6 56 +15 +15 1012.2 1008.5 +19.2 0.0
21 23.06 З 1-2
{5}
н/о н/о +9.8 +7.8 87 +9 +9 1012.9 1009.1
00 24.06 штиль 0
{3}
н/о н/о +9.5 +8.1 91 +9 +9 1012.5 1008.7
03 24.06 ЮЗ 1-1
{3}
н/о н/о +8.7 +7.7 93 +8 +8 1011.7 1007.9 +8.6
06 24.06 СЗ 2-4
{4}
20 км 4/1 600 м
[Cu med, cong Ac cuf Ci fib]
+14.3 +8.9 70 +14 +18 1011.3 1007.5 +8.4
09 24.06 С 2-5
{7}
н/о н/о +13.8 +9.5 75 +13 +13 1011.8 1008.0
12 24.06 СЗ 3-7
{7}
н/о н/о +17.2 +7.9 54 +17 +17 1011.6 1007.9
15 24.06 СЗ 4-8
{8}
н/о н/о +16.6 +7.3 54 +16 +16 1012.0 1008.3
18 24.06 СЗ 2-4
{8}
20 км 9/3 600 м
[Cu med, cong Cs]
+14.0 +8.6 70 +14 +14 1012.9 1009.1 +18.3 0.3
21 24.06 СЗ 2-4
{11}
н/о н/о +11.2 +9.3 88 +10 +10 1014.1 1010.3

 

Местоположение метеостанции Черняховск (Калининградская область, Россия): широта 54.63 долгота 21.80 высота над уровнем моря 31 м.

В архиве по умолчанию представлена погода в Черняховске за последнюю неделю. Архивные данные за месяц целиком и за предыдущие месяцы, начиная с января 2011 года, Вы можете получить, выбрав интересующий диапазон дат из раскрывающегося списка и нажав кнопку "Ввод!".


*Определитесь, кто Вы:
робот инопланетянин человек

Внимание! Время в таблицах - всемирное. Для получения местного времени необходимо прибавить поправку, которая в Черняховске равна 2 ч.

Смотрите также архив погоды в соседних городах и на ближайших метеорологических станциях:

Погода в Железнодорожном (Калининградская область, Россия) (43 км)
Погода в Советске (Калининградская область, Россия) (51 км)
Погода в Kybart? (Литва) (63 км)
Погода в Ketrzyn (Польша) (68 км)
Погода в Калининграде (Калининградская область, Россия) (76 км)
Погода в ?ilut? (Литва) (83 км)
Погода в Рыбачьем (Калининградская область, Россия) (85 км)
Погода в Рыбном Порту (Калининградская область, Россия) (87 км)
Погода в Nidoje (Литва) (91 км)
Погода в Suwalki (Польша) (93 км)

Пояснения к столбцам:

Ветер - указаны скорость ветра в м/с - средняя за 10 мин, порывы в срок и между сроками (в фигурных скобках) и направление, откуда дует ветер: С - северный, СВ - северо-восточный, В - восточный, ЮВ - юго-восточный, Ю - южный, ЮЗ - юго-западный, З - западный, СЗ - северо-западный.
Видимость - горизонтальная дальность видимости в метрах или километрах. При видимости от 1 до 10 км при отсутствии осадков обычно наблюдается дымка, при ухудшении видимости до 1 км и менее - туман. В сухую погоду видимость может ухудшаться дымом, пылью или мглою.
Явления - указаны атмосферные явления, наблюдавшиеся в срок или в последний час перед сроком; фигурными скобками обозначены явления, наблюдавшиеся между сроками (за 1-3 часа до срока); квадратными скобками обозначены град или гололедные отложения с указанием их диаметра в мм.
Облачность - указаны через наклонную черту общая и нижняя облачность в баллах и высота нижней границы облаков в метрах; квадратными скобками обозначены формы облаков: Ci - перистые, Cs - перисто-слоистые, Cc - перисто-кучевые, Ac - высококучевые, As - высокослоистые, Sc - слоисто-кучевые, Ns - слоисто-дождевые, Cu - кучевые, Cb - кучево-дождевые. Подробнее классификацию облаков см. в Атласе облаков (PDF).
T - Температура воздуха - температура, измеренная на высоте 2 м над землей.
Td - Температура точки росы - температура, при понижении до которой содержащийся в воздухе водяной пар достигнет насыщения.
f - Относительная влажность воздуха - влажноcть воздуха, измеренная на высоте 2 м над землей.
Te - Эффективная температура - температура, которую ощущает одетый по сезону человек в тени. Характеристика душности погоды. При расчете учитывается влияние влажности воздуха и скорости ветра на теплоощущения человека.
Tes - Эффективная температура на солнце - температура, которую ощущает человек, с поправкой на солнечный нагрев. Характеристика знойности погоды. Зависит от высоты солнца над горизонтом, облачности и скорости ветра. Ночью, в пасмурную погоду, а также при ветре 12 м/с и более поправка равна нулю.
P - Атмосферное давление - приведенное к уровню моря атмосферное давление.
Po - Атмосферное давление - измеренное на уровне метеостанции атмосферное давление.
Tmin - Минимальная температура - минимум температуры воздуха на высоте 2 м над землей.
Tmax - Максимальная температура - максимум температуры воздуха на высоте 2 м над землей.
R - Количество осадков - Количество выпавших осадков за период времени, мм. При наведении курсора мыши на число - период времени, за который выпало указанное количество осадков.
R24 - Количество осадков - Количество выпавших осадков за 24 часа, мм.
S - Снежный покров - Высота снежного покрова, см. При наведении курсора мыши на число - состояние снежного покрова и степень покрытия местности в баллах.